Fulton, NY

5:25 PM EST on December 11, 2019 (GMT -0500)
Oswego County

Weather History for KFZY - May, 2019

Change the Weather History Date:

Tuesday, May 14, 2019

  Actual Average (WUND) Record (WUND)
Temperature  
Mean Temperature 44 °F -  
Max Temperature 48 °F - - (-1)
Min Temperature 41 °F - - (-1)
Degree Days  
Heating Degree Days 20    
Moisture  
Dew Point 38 °F    
Average Humidity 79    
Maximum Humidity 89    
Minimum Humidity 68    
Precipitation  
Precipitation 0.31 in - - ()
Sea Level Pressure  
Sea Level Pressure 29.85 in    
Wind  
Wind Speed 7 mph (NW)    
Max Wind Speed 15 mph    
Max Gust Speed 20 mph    
Visibility 10 miles    
Events Rain    
Averages and records for this station are not official NWS values.
T = Trace of Precipitation, MM = Missing Value Source: NWS Daily Summary

Daily Weather History Graph

Daily Weather History Graph

Search for Another Location

Airport or City:

Astronomy

May. 14, 2019 Rise Set
Actual Time 5:42 AM EDT 8:21 PM EDT
Civil Twilight 5:09 AM EDT 8:54 PM EDT
Nautical Twilight 4:28 AM EDT 9:35 PM EDT
Astronomical Twilight 3:42 AM EDT 10:23 PM EDT
Moon 3:29 PM EDT (5/14) 3:46 AM EDT (5/14)
Length of Visible Light 15h 44m
Length of Day
14h 39m
Waxing Gibbous, 79% of the Moon is Illuminated
May 14
Waxing Gibbous
May 18
Full
May 26
Last Quarter
Jun 3
New
Jun 10
First Quarter

Hourly Weather History & Observations

Time (EDT) Temp. Windchill Dew Point Humidity Pressure Visibility Wind Dir Wind Speed Gust Speed Precip Events Conditions
12:54 AM 43.0 °F 41.3 °F 37.9 °F 82% 29.80 in 10.0 mi Variable 3.5 mph - 0.04 in Rain Light Rain
1:54 AM 42.1 °F 37.7 °F 37.9 °F 85% 29.78 in 10.0 mi Variable 6.9 mph - 0.06 in Rain Light Rain
2:54 AM 42.1 °F 37.7 °F 37.9 °F 85% 29.77 in 10.0 mi East 6.9 mph - 0.02 in Rain Light Rain
3:12 AM 42.1 °F 39.2 °F 37.9 °F 85% 29.76 in 10.0 mi Variable 4.6 mph - 0.00 in Rain Light Rain
3:54 AM 41.0 °F 39.0 °F 37.9 °F 89% 29.76 in 10.0 mi Variable 3.5 mph - 0.01 in Rain Light Rain
4:18 AM 41.0 °F 39.0 °F 37.9 °F 89% 29.75 in 10.0 mi Variable 3.5 mph - 0.01 in Rain Light Rain
4:54 AM 41.0 °F - 37.9 °F 89% 29.76 in 10.0 mi Calm Calm - 0.04 in Rain Light Rain
5:12 AM 41.0 °F 39.0 °F 37.0 °F 86% 29.75 in 10.0 mi Variable 3.5 mph - 0.01 in Rain Light Rain
5:54 AM 41.0 °F 38.0 °F 37.0 °F 86% 29.77 in 10.0 mi East 4.6 mph - 0.02 in Rain Light Rain
6:54 AM 41.0 °F 37.1 °F 37.0 °F 86% 29.79 in 10.0 mi NE 5.8 mph - 0.05 in Rain Light Rain
7:17 AM 41.0 °F 37.1 °F 37.0 °F 86% 29.79 in 10.0 mi NE 5.8 mph - 0.01 in Rain Light Rain
7:54 AM 41.0 °F 36.4 °F 37.0 °F 86% 29.80 in 10.0 mi NE 6.9 mph - 0.03 in Rain Light Rain
8:54 AM 43.0 °F 38.2 °F 37.9 °F 82% 29.81 in 10.0 mi NE 8.1 mph - 0.03 in Rain Light Rain
9:54 AM 43.0 °F 38.2 °F 37.9 °F 82% 29.82 in 10.0 mi NNW 8.1 mph - 0.00 in Rain Light Rain
10:08 AM 44.1 °F 39.5 °F 37.9 °F 79% 29.81 in 10.0 mi North 8.1 mph - 0.01 in Rain Light Rain
10:54 AM 44.1 °F 41.5 °F 37.9 °F 79% 29.83 in 10.0 mi NNW 4.6 mph - 0.01 in   Overcast
11:54 AM 44.1 °F 39.5 °F 37.0 °F 76% 29.85 in 10.0 mi NNW 8.1 mph - N/A   Overcast
12:31 PM 45.0 °F 40.6 °F 37.9 °F 76% 29.84 in 10.0 mi NNW 8.1 mph - 0.00 in   Overcast
12:44 PM 45.0 °F 40.1 °F 39.0 °F 80% 29.84 in 10.0 mi NW 9.2 mph - 0.00 in Rain Light Rain
12:54 PM 45.0 °F 39.7 °F 39.0 °F 80% 29.86 in 10.0 mi NNW 10.4 mph - 0.00 in Rain Light Rain
1:27 PM 46.0 °F 41.4 °F 37.9 °F 73% 29.85 in 10.0 mi NNW 9.2 mph 17.3 mph 0.00 in   Overcast
1:37 PM 46.0 °F 41.4 °F 39.0 °F 76% 29.85 in 10.0 mi NNW 9.2 mph 18.4 mph 0.00 in   Overcast
1:54 PM 46.9 °F - 39.0 °F 74% 29.86 in 10.0 mi NW 12.7 mph 19.6 mph 0.00 in Rain Light Rain
2:22 PM 48.0 °F - 39.0 °F 71% 29.86 in 10.0 mi NNW 12.7 mph - 0.00 in   Overcast
2:54 PM 48.0 °F - 37.9 °F 68% 29.87 in 10.0 mi NNW 11.5 mph 18.4 mph 0.00 in   Overcast
3:54 PM 48.9 °F - 39.0 °F 69% 29.88 in 10.0 mi NW 11.5 mph - N/A   Overcast
4:28 PM 48.0 °F - 39.0 °F 71% 29.87 in 10.0 mi NW 12.7 mph 19.6 mph N/A   Overcast
4:45 PM 48.9 °F - 39.0 °F 69% 29.87 in 10.0 mi NW 15.0 mph - N/A   Overcast
4:52 PM 48.2 °F - 39.2 °F 71% 29.88 in 10.0 mi WNW 12.7 mph 19.6 mph N/A   Overcast
4:54 PM 48.9 °F - 39.9 °F 71% 29.88 in 10.0 mi NW 11.5 mph 19.6 mph N/A   Overcast
5:05 PM 48.0 °F - 39.0 °F 71% 29.88 in 10.0 mi WNW 13.8 mph - N/A   Overcast
5:21 PM 46.9 °F - 37.9 °F 71% 29.88 in 10.0 mi NW 12.7 mph - N/A   Overcast
5:54 PM 46.9 °F - 39.0 °F 74% 29.90 in 10.0 mi West 11.5 mph - N/A   Overcast
6:22 PM 46.0 °F 41.4 °F 39.0 °F 76% 29.89 in 10.0 mi WNW 9.2 mph - N/A   Overcast
6:54 PM 46.0 °F 40.6 °F 39.0 °F 76% 29.90 in 10.0 mi WNW 11.5 mph - N/A   Overcast
7:16 PM 46.0 °F 43.1 °F 39.9 °F 79% 29.90 in 10.0 mi WNW 5.8 mph - N/A   Overcast
7:32 PM 46.0 °F 41.9 °F 39.0 °F 76% 29.90 in 10.0 mi NW 8.1 mph - N/A   Mostly Cloudy
7:50 PM 44.6 °F 39.2 °F 39.2 °F 81% 29.91 in 10.0 mi WNW 10.4 mph - N/A   Mostly Cloudy
7:54 PM 45.0 °F 39.7 °F 39.0 °F 80% 29.92 in 10.0 mi WNW 10.4 mph - N/A   Mostly Cloudy
8:54 PM 44.1 °F 39.5 °F 39.0 °F 82% 29.93 in 10.0 mi WNW 8.1 mph - N/A   Overcast
9:54 PM 41.0 °F 37.1 °F 37.0 °F 86% 29.93 in 10.0 mi WNW 5.8 mph - N/A   Mostly Cloudy
10:54 PM 41.0 °F 39.0 °F 37.0 °F 86% 29.93 in 10.0 mi WNW 3.5 mph - N/A   Mostly Cloudy
11:54 PM 42.1 °F 39.2 °F 37.9 °F 85% 29.93 in 10.0 mi West 4.6 mph - N/A   Overcast